Terminal Aerodrome Forecast
Issued by NWS Tulsa, OK

Home | Current Version | Previous Version | Text Only | Print | Product List | Glossary On
Versions: 1 2 3 4 5 6 7 8 9 10 11 12 13 14 15 16 17
000
FTUS44 KTSA 061100
TAFFSM
TAF
KFSM 061138Z 0612/0712 VRB03KT P6SM SKC
     FM061600 14003KT P6SM SKC
     FM061800 22007KT P6SM SKC
     FM070000 21002KT P6SM SKC=

USA.gov is the U.S. government's official web portal to all federal, state and local government web resources and services.